Flag for Bosnia-Herzegovina Weather past 2 weeks in Sarajevo, Bosnia-Herzegovina

Now
46 °F

Passing clouds.


Feels Like: 46 °F
Forecast: 36 / 65 °F
Wind: 2 mph from North

Location: Sarajevo / Butmir

Current Time: Sep 23, 2014 at 8:40:10 PM

Latest Report: Sep 23, 2014 at 8:00 PM


Visibility: N/A

Pressure: 30.15 "Hg

Humidity: 93%

Dew point: 45 °F

Location of SarajevoLocation

Historic Weather in Sarajevo — Graph

°F

Sarajevo temperature yesterday

Maximum temperature yesterday: 64 °F (at 1:00 PM)
Minimum temperature yesterday: 46 °F (at 10:30 PM)
Average temperature yesterday: 56 °F

Past Weeks' High & Low Weather Summary

 TemperatureHumidityPressure
High79 °F (Sep 10, 4:00 PM)100% (Sep 9, 2:00 AM)30.21 "Hg (Sep 9, 2:00 AM)
Low45 °F (Sep 23, 5:30 AM)41% (Sep 18, 4:00 PM)29.83 "Hg (Sep 11, 2:00 PM)
Average60 °F83%30.03 "Hg
* Reported Sep 8 7:00 PM — Sep 23 7:30 PM, Sarajevo, Weather by CustomWeather, © 2014

Note: Actual official high and low records may vary slightly from our data, if they occured in-between our weather recording intervals... More about our weather records

Advertising

Sarajevo weather history for previous 24 hours

 ConditionsComfort  
Time TempWeatherWind HumidityBarometerVisibility
7:30 PM
Sep 23
48 °FScattered clouds.1 mph82%30.15 "HgN/A
7:00 PM50 °FScattered clouds.2 mph76%30.15 "HgN/A
6:30 PM52 °FScattered clouds.2 mph72%30.12 "HgN/A
6:00 PM54 °FScattered clouds.5 mph67%30.12 "HgN/A
5:30 PM54 °FScattered clouds.3 mph63%30.12 "HgN/A
5:00 PM55 °FPartly sunny.8 mph63%30.12 "HgN/A
4:30 PM54 °FPartly sunny.3 mph63%30.12 "HgN/A
4:00 PM54 °FPartly sunny.3 mph63%30.12 "HgN/A
3:30 PM54 °FPartly sunny.2 mph63%30.12 "HgN/A
3:00 PM54 °FPartly sunny.6 mph63%30.09 "HgN/A
2:30 PM54 °FBroken clouds.6 mph63%30.12 "HgN/A
2:00 PM52 °FBroken clouds.8 mph72%30.12 "HgN/A
1:30 PM50 °FBroken clouds.7 mph76%30.12 "HgN/A
1:00 PM54 °FLight rain. Broken clouds.12 mph67%30.09 "HgN/A
12:30 PM52 °FLight rain. Broken clouds.7 mph72%30.09 "HgN/A
12:00 PM50 °FBroken clouds.5 mph71%30.09 "HgN/A
11:30 AM52 °FBroken clouds.5 mph77%30.09 "HgN/A
11:00 AM50 °FBroken clouds.8 mph76%30.07 "HgN/A
10:30 AM50 °FLight rain. Broken clouds.6 mph82%30.07 "HgN/A
10:00 AM48 °FBroken clouds.5 mph87%30.07 "HgN/A
9:30 AM48 °FBroken clouds.6 mph87%30.04 "HgN/A
9:00 AM46 °FLight rain. Broken clouds.6 mph100%30.04 "HgN/A
8:30 AM46 °FBroken clouds.2 mph93%30.01 "HgN/A
8:00 AM46 °FLight rain. Broken clouds.1 mph93%30.01 "Hg5 mi
7:30 AM45 °FLight rain. Mostly cloudy.1 mph100%29.98 "Hg5 mi
7:00 AM45 °FRain. Mostly cloudy.2 mph100%29.95 "Hg4 mi
6:30 AM45 °FRain. Mostly cloudy.3 mph100%29.95 "Hg4 mi
6:00 AM45 °FRain. Mostly cloudy.1 mph93%29.92 "Hg4 mi
5:30 AM45 °FLight rain. Mostly cloudy.3 mph100%29.92 "Hg5 mi
5:00 AM46 °FLight rain. Mostly cloudy.2 mph93%29.92 "Hg5 mi
4:00 AM48 °FRain. Mostly cloudy.6 mph100%29.95 "Hg4 mi
3:00 AM48 °FThunderstorms. Partly cloudy.3 mph100%29.95 "Hg4 mi
2:00 AM48 °FLight rain. Passing clouds.2 mph94%29.92 "HgN/A
1:00 AM48 °FPassing clouds.5 mph94%29.95 "HgN/A
12:00 AM48 °FPassing clouds.1 mph94%29.95 "Hg4 mi
11:30 PM
Sep 22
48 °FPassing clouds.1 mph94%29.98 "Hg5 mi
11:00 PM46 °FPassing clouds.1 mph100%29.95 "Hg5 mi
10:30 PM46 °FPassing clouds.1 mph100%29.95 "Hg5 mi
10:00 PM48 °FPassing clouds.1 mph94%29.98 "Hg5 mi
9:30 PM48 °FPassing clouds.1 mph94%29.98 "Hg5 mi
9:00 PM48 °FPassing clouds.1 mph94%29.98 "HgN/A
8:30 PM48 °FPassing clouds.2 mph94%29.98 "HgN/A
8:00 PM48 °FPassing clouds.3 mph94%29.98 "HgN/A
Weather by CustomWeather, © 2014

See weather overviewHow to use our weather pages